Vertical_Velocity
0 -4 -0 -1 -1 1 1 2 -2 -2 -1 -3 0 -2 -1 -3 0 -1 -0 -2 -2 -1 -3 -1 -2 -1 -2 2 -2 -1 -2 2 2 -2 -3 -3 6 -0 5 11 1 9 6 -4 -3 -6 25
-2 -1 -3 -1 0 1 -1 -2 -1 -1 -0 -0 0 -1 -1 -1 -1 1 -2 -1 -3 -1 -2 -0 -3 -2 -2 -2 0 2 -8 4 -2 1 -3 4 9 2 -5 -6 -1 -1 6 3 6 -13 6
-0 -4 0 0 -4 -0 1 1 -3 -2 -1 -0 2 0 -1 -3 -1 -2 -2 -0 -2 -2 -1 -1 -4 -1 -0 -7 -1 -1 -1 1 -7 -1 -7 0 -4 -3 -3 -3 12 15 -19 -4 -5 1 -3
6 -1 1 -1 2 -3 2 -1 -1 -0 -2 -0 2 0 -1 -1 0 -2 -3 -1 -2 -1 -1 -0 -2 -2 2 -6 2 -6 2 -0 -4 1 1 1 -1 1 -3 2 4 12 -4 0 -8 -7 4
-2 8 -5 1 -3 1 -6 1 0 -2 -2 0 1 1 -1 -2 -0 -1 -1 -1 -2 -3 -1 0 -1 -3 -2 1 0 -5 3 7 1 6 -1 4 4 -4 -5 -2 -4 -0 1 8 1 -8 7
8 5 4 -4 7 -7 1 4 -7 -1 -1 -0 3 -1 -1 0 -2 -0 -0 1 -3 -5 1 -0 -1 -3 -3 4 7 -2 -1 9 -11 -7 -5 3 1 -1 -8 0 0 -2 6 -1 5 9 10
-4 -2 7 6 3 4 -8 2 -4 1 -1 2 -1 1 -0 1 1 -2 3 1 -2 -8 1 0 -2 -0 -1 -4 4 -4 2 1 -11 3 2 1 -1 1 0 2 -4 -2 5 14 13 2 17
3 -3 -3 -1 8 4 4 -2 1 1 -3 1 0 -1 0 0 1 -2 2 4 0 -8 -4 -5 -2 -2 -1 -4 -1 -8 -0 -2 -1 -4 3 -5 2 -9 9 9 -4 4 -5 1 -14 -4 16
2 5 2 -2 -2 -3 0 5 0 3 1 4 1 -6 -3 -1 -3 -1 3 2 -11 -1 -6 8 -1 2 -0 1 1 -4 -3 5 -2 -4 -2 6 -7 1 14 -29 6 1 7 1 4 9 2
4 -1 2 5 -3 -4 2 1 -1 4 3 1 5 3 -4 -4 1 3 0 1 -5 2 -5 -6 -7 -4 -7 2 -11 0 5 14 4 -7 1 -2 8 0 -9 -5 11 -3 -10 5 3 3 -1
-1 -2 2 4 1 -1 0 -2 4 -2 5 3 2 -2 -2 -4 -1 4 -1 -1 -2 2 -3 -4 -3 4 5 -8 3 -7 -3 8 6 -1 -1 -16 6 5 5 -4 -1 4 3 14 2 4 2
-2 1 -5 4 3 3 3 0 -1 -1 2 5 2 1 -2 -2 3 2 -2 2 3 2 -18 -3 1 -6 -1 -1 1 7 8 9 2 5 -3 -7 10 -1 -2 4 -0 16 -3 6 5 1 -2
-2 1 -1 0 2 3 5 -1 5 5 -2 4 4 4 -4 2 10 1 -0 3 2 -2 2 -0 -14 -3 3 -4 -1 -0 4 14 -7 -5 -3 8 3 -4 -5 -5 5 6 0 -5 -4 -2 -6
-5 -2 3 2 -3 1 5 3 5 3 1 7 4 2 1 7 5 2 4 7 8 -1 -7 1 -1 9 -12 -5 -5 -4 1 -4 10 2 0 4 2 -12 -2 -2 -7 -10 4 -3 -3 -2 -3
-0 -5 1 2 -2 -3 8 5 2 4 7 8 5 -0 -6 13 6 3 3 5 -10 -12 2 2 20 11 1 1 -1 9 4 -4 -7 0 0 -0 -5 -0 -11 -3 -8 6 5 6 -0 0 -0
1 -1 0 2 1 3 1 5 6 7 5 8 4 4 -8 10 4 5 3 -6 -11 -18 8 8 10 4 -7 -4 1 11 2 -10 -7 -5 7 -10 -2 -2 5 8 -15 -5 13 -1 -1 -3 -1
1 3 -3 -1 9 3 -3 -0 11 6 10 12 11 6 -1 12 9 -1 -21 -12 -11 -11 10 3 8 8 1 -7 -5 -7 -8 -3 7 -0 8 9 2 -6 -2 -7 4 11 -5 7 7 1 -5
0 0 3 -2 -6 -3 2 1 7 6 25 5 8 0 -5 16 -1 -0 -11 -8 0 -11 6 3 3 1 -2 -1 2 6 -15 5 6 3 -17 1 5 -5 -15 -14 6 7 -9 6 2 -4 0
1 1 2 -1 -0 13 0 10 4 7 5 21 -2 12 1 27 -26 -21 13 -0 -10 2 3 5 -2 10 9 8 9 7 -1 10 -9 -16 -5 -2 -5 -1 -3 10 -2 5 4 12 7 1 -5
3 2 3 -1 -0 7 6 4 -1 3 7 11 18 2 5 -14 30 5 0 -9 -25 15 -4 2 -8 7 6 2 1 2 -1 1 5 -6 -9 10 4 -5 -17 -11 8 2 1 4 6 3 -3
2 1 2 4 4 3 6 1 4 2 8 17 9 -10 -16 -39 -27 4 7 8 -13 -11 -7 17 -3 2 -1 9 -6 -4 1 3 13 -1 3 -8 2 3 -3 -2 0 -1 -1 2 3 -1 2
2 1 2 2 -2 1 6 -7 19 13 21 20 -3 -9 4 -2 17 18 10 -13 -30 19 0 -4 -10 4 7 7 -9 -26 4 -9 -7 4 1 -4 -7 -1 6 6 3 -1 -2 2 -2 4 -2
3 2 2 2 -0 -1 -0 -12 6 7 21 -2 21 20 15 -1 4 18 -46 -12 -40 18 -1 -8 -5 9 11 -4 15 4 -7 2 3 -4 -1 3 1 0 -5 -1 -1 -1 -10 2 -8 8 8
4 1 2 1 -2 -6 -1 -3 -4 1 0 -0 9 17 13 -17 3 -11 3 -7 -16 -6 -11 -16 -0 6 7 5 7 3 10 8 8 4 4 0 1 4 -2 3 -4 -10 1 4 -1 -3 -1
1 2 -1 -0 -4 -3 1 4 -3 -6 12 -22 19 7 6 -1 10 -9 7 6 21 -4 -17 -8 6 2 8 8 11 6 11 8 3 -0 -4 0 1 -0 -2 -1 -4 -5 4 -6 -2 -1 -0
1 -0 -2 -3 0 -2 -3 -2 -1 -6 1 -23 15 6 37 2 -33 19 -4 -5 -13 -13 9 -2 11 19 8 10 3 -6 -7 -4 -2 -2 -2 1 4 9 -0 -2 -5 -7 2 8 7 4 2
-0 -0 -3 -1 -1 -2 -5 -4 -7 -2 -5 -6 1 43 3 6 -6 -13 -30 -12 30 -1 0 3 -4 15 16 -6 4 -3 -0 5 -7 -7 -5 -1 2 -0 0 -2 -3 -6 -3 3 7 -7 -1
1 -1 -0 -1 -3 -2 -4 -4 -7 -3 13 -9 -11 -19 12 11 2 17 -6 -5 2 -10 -11 0 18 19 16 7 14 -5 2 -0 -0 -1 -5 -4 -2 -3 3 0 -13 -2 3 0 -3 -1 -1
-0 1 2 1 0 2 -3 2 5 7 4 2 -5 25 14 14 -1 7 -11 -20 12 -1 7 0 -1 -11 5 -0 -1 5 -3 2 -3 -6 -2 -4 -11 -10 -9 -4 -3 -1 2 1 -3 -2 -2
Height
3124 3126 3128 3129 3131 3132 3134 3135 3137 3138 3140 3142 3143 3144 3145 3145 3144 3144 3143 3142 3139 3137 3135 3133 3132 3131 3130 3130 3128 3127 3126 3125 3125 3126 3127 3128 3129 3131 3131 3132 3133 3131 3132 3133 3134 3136 3135
3117 3119 3121 3123 3125 3127 3128 3129 3130 3131 3133 3135 3137 3138 3140 3140 3140 3140 3139 3138 3136 3134 3132 3130 3130 3129 3128 3129 3128 3126 3126 3126 3125 3127 3128 3129 3130 3130 3130 3130 3131 3129 3131 3134 3134 3135 3135
3110 3112 3113 3116 3118 3120 3122 3123 3124 3125 3127 3129 3131 3132 3133 3136 3136 3136 3136 3134 3133 3131 3129 3127 3128 3126 3126 3127 3126 3126 3126 3126 3127 3128 3129 3128 3128 3128 3130 3131 3131 3131 3132 3134 3134 3134 3135
3100 3103 3106 3107 3110 3114 3116 3116 3118 3119 3121 3122 3124 3126 3128 3130 3131 3132 3132 3130 3129 3127 3126 3125 3125 3125 3124 3124 3125 3126 3126 3127 3128 3130 3130 3129 3128 3127 3129 3131 3131 3132 3132 3133 3134 3135 3135
3090 3093 3096 3100 3102 3103 3108 3110 3112 3114 3115 3116 3117 3119 3122 3124 3126 3127 3127 3126 3125 3124 3122 3122 3123 3123 3124 3125 3125 3126 3127 3128 3128 3129 3129 3128 3128 3128 3130 3130 3131 3130 3132 3133 3132 3134 3136
3077 3081 3085 3089 3093 3096 3098 3102 3106 3108 3109 3111 3112 3113 3115 3117 3120 3122 3123 3122 3121 3122 3119 3120 3121 3124 3124 3125 3125 3126 3127 3128 3127 3127 3127 3127 3127 3128 3131 3131 3132 3130 3130 3131 3131 3133 3134
3064 3069 3072 3077 3082 3086 3089 3092 3096 3101 3103 3106 3106 3108 3110 3112 3115 3117 3119 3118 3121 3119 3116 3118 3118 3118 3119 3122 3123 3124 3126 3126 3126 3128 3128 3126 3128 3129 3131 3132 3132 3133 3131 3132 3131 3131 3133
3046 3053 3059 3065 3070 3076 3080 3084 3088 3092 3096 3098 3101 3103 3105 3107 3110 3113 3114 3113 3114 3114 3112 3112 3114 3115 3117 3118 3120 3121 3124 3126 3126 3127 3128 3129 3128 3129 3130 3131 3133 3133 3132 3130 3127 3126 3129
3025 3033 3041 3050 3057 3063 3069 3075 3079 3083 3088 3091 3094 3098 3101 3102 3105 3109 3110 3109 3108 3109 3107 3109 3109 3112 3115 3117 3118 3119 3122 3124 3125 3126 3128 3128 3129 3130 3131 3131 3132 3131 3129 3128 3127 3125 3128
3004 3013 3023 3031 3041 3049 3057 3063 3069 3074 3079 3083 3087 3091 3094 3098 3103 3105 3106 3105 3107 3108 3107 3104 3104 3107 3111 3114 3115 3118 3119 3123 3124 3125 3127 3127 3127 3128 3130 3129 3131 3128 3127 3127 3127 3127 3128
2982 2991 3002 3012 3021 3033 3042 3052 3059 3065 3070 3074 3080 3084 3090 3092 3098 3101 3101 3103 3104 3108 3108 3101 3101 3103 3107 3110 3113 3115 3118 3119 3122 3124 3126 3126 3124 3126 3127 3128 3128 3128 3127 3128 3127 3126 3128
2958 2969 2979 2991 3003 3014 3026 3035 3046 3054 3060 3066 3072 3078 3082 3086 3093 3094 3098 3100 3103 3108 3100 3097 3098 3099 3103 3106 3110 3114 3116 3118 3120 3122 3122 3122 3123 3124 3125 3125 3126 3126 3126 3125 3125 3126 3128
2937 2947 2958 2968 2981 2995 3006 3019 3030 3041 3049 3056 3063 3069 3076 3081 3088 3089 3094 3097 3102 3098 3094 3094 3095 3097 3098 3103 3107 3110 3112 3114 3116 3120 3119 3120 3120 3121 3122 3123 3124 3124 3125 3125 3127 3128 3128
2920 2930 2938 2947 2958 2974 2987 3001 3013 3026 3036 3044 3053 3061 3067 3074 3079 3084 3090 3093 3089 3085 3088 3089 3092 3095 3096 3100 3103 3106 3108 3109 3113 3116 3118 3119 3120 3121 3120 3122 3123 3123 3124 3125 3127 3130 3124
2906 2914 2923 2932 2940 2952 2967 2983 2997 3010 3023 3031 3040 3049 3055 3066 3070 3077 3084 3081 3074 3079 3083 3087 3090 3090 3093 3097 3100 3103 3105 3106 3108 3113 3117 3117 3118 3118 3120 3120 3123 3123 3122 3122 3121 3124 3124
2892 2900 2908 2918 2927 2935 2946 2963 2979 2993 3009 3019 3026 3035 3044 3060 3061 3070 3074 3063 3066 3077 3080 3083 3086 3086 3088 3092 3095 3098 3100 3101 3104 3109 3112 3115 3116 3117 3118 3118 3119 3120 3122 3121 3120 3123 3125
2877 2884 2893 2902 2912 2922 2930 2944 2960 2976 2992 3006 3016 3023 3029 3048 3052 3058 3052 3051 3059 3072 3076 3080 3082 3082 3085 3088 3090 3093 3096 3099 3100 3104 3108 3111 3114 3115 3114 3110 3111 3116 3116 3118 3119 3117 3116
2862 2870 2878 2888 2898 2908 2917 2931 2944 2960 2977 2991 3003 3011 3016 3035 3042 3042 3038 3046 3055 3064 3071 3073 3076 3078 3080 3084 3086 3089 3092 3094 3097 3099 3103 3107 3109 3109 3110 3109 3111 3112 3113 3114 3114 3115 3113
2847 2856 2865 2875 2885 2896 2907 2920 2931 2945 2961 2977 2988 3004 3013 3024 3025 3026 3033 3039 3047 3057 3063 3069 3071 3074 3076 3079 3083 3085 3087 3090 3092 3095 3097 3102 3105 3106 3108 3110 3108 3109 3109 3110 3109 3109 3109
2832 2843 2853 2863 2874 2886 2898 2908 2922 2936 2949 2966 2981 2994 3004 3009 3014 3019 3025 3030 3037 3048 3054 3061 3066 3068 3071 3074 3077 3080 3083 3087 3088 3090 3097 3099 3099 3101 3102 3103 3104 3104 3105 3105 3105 3105 3105
2819 2832 2843 2852 2863 2876 2887 2899 2912 2927 2941 2957 2968 2976 2981 2986 2994 3004 3016 3021 3033 3038 3046 3058 3060 3062 3066 3071 3072 3075 3079 3083 3085 3087 3092 3095 3096 3097 3099 3100 3099 3100 3101 3101 3100 3101 3101
2807 2820 2832 2844 2854 2865 2877 2890 2902 2917 2934 2944 2955 2965 2975 2983 2992 2998 3003 3008 3025 3034 3041 3047 3053 3058 3062 3066 3068 3071 3073 3079 3082 3085 3088 3091 3093 3094 3095 3094 3094 3095 3096 3096 3096 3096 3096
2798 2811 2823 2833 2845 2856 2869 2881 2894 2907 2923 2928 2945 2959 2970 2978 2983 2990 2986 2998 3015 3029 3034 3043 3052 3055 3057 3062 3066 3069 3071 3077 3079 3081 3083 3086 3087 3089 3089 3090 3090 3090 3090 3090 3092 3091 3091
2791 2804 2815 2825 2837 2849 2861 2874 2887 2899 2913 2926 2938 2954 2962 2969 2975 2974 2987 2995 3009 3019 3030 3040 3048 3050 3055 3059 3063 3066 3069 3072 3074 3076 3079 3081 3083 3085 3086 3086 3088 3085 3084 3084 3084 3085 3085
2786 2798 2809 2820 2832 2844 2856 2869 2882 2893 2907 2921 2933 2947 2956 2962 2971 2977 2982 2991 3009 3018 3024 3035 3041 3045 3051 3054 3057 3061 3064 3068 3069 3071 3073 3076 3078 3080 3081 3081 3081 3081 3082 3081 3081 3083 3083
2784 2795 2805 2817 2828 2840 2855 2865 2876 2889 2902 2921 2928 2941 2951 2961 2960 2976 2983 2990 2996 3007 3020 3025 3034 3040 3044 3047 3051 3052 3057 3062 3064 3068 3069 3072 3074 3077 3077 3078 3079 3075 3077 3078 3078 3079 3079
2783 2794 2805 2816 2827 2839 2851 2860 2873 2886 2899 2916 2923 2933 2949 2955 2962 2970 2975 2980 2994 3002 3013 3020 3026 3032 3036 3040 3045 3050 3053 3057 3058 3061 3065 3068 3069 3071 3072 3073 3071 3072 3073 3074 3076 3079 3076
2787 2797 2807 2817 2827 2837 2848 2860 2870 2884 2896 2911 2924 2935 2946 2949 2957 2963 2976 2979 2987 2995 3002 3010 3020 3021 3028 3034 3040 3042 3047 3050 3053 3057 3059 3062 3064 3066 3068 3070 3068 3065 3068 3070 3071 3071 3072
2792 2800 2809 2817 2826 2836 2848 2858 2869 2882 2895 2906 2919 2932 2938 2945 2954 2957 2963 2971 2982 2991 3000 3007 3013 3019 3023 3029 3035 3039 3041 3044 3047 3052 3055 3059 3058 3059 3062 3061 3061 3061 3063 3064 3066 3067 3068